Content
SEND FEEDBACK

Daily
Averages
Monthly
Summary
Spain

ZARAGOZA, SPAIN


Home > Europe > Spain
Elevation: 846 feet     Latitude: 41 40N     Longitude: 001 01W

WEATHER
 
SELECT A DAY
Number of Records: 313,891;   Date Range: 7/1/96 - 8/12/14
 
SHARE

PRINT THIS DATA

[ ← Previous Day ]
WEATHER ALMANAC - JUNE 14, 2013
[ Next Day → ]
[ °C ]   °F
Weather ElementAverageHighLow
Temperature72.6 °F87.8 °F (5:30 pm)57.2 °F (6:00 am)
Dewpoint55.7 °F62.6 °F (11:30 pm)51.8 °F (1:00 am)
Humidity57.4 %88 % (7:00 am)33 % (8:00 pm)
Barometer30.03 in30.12 in (12:30 am)29.88 in (8:00 pm)
Wind Speed7.7 mph16.1 mph (1:00 am)
Weather ElementAverage
Visibility6.7 mi
Wind DirectionSSE (148.4 °)

Weather ElementTotal
Precipitation---
Cooling Degree Days7.5 (Base 65)
Growing Degree Days22.5 (Base 50)
Averaged from 50 records on June 14, 2013
WEATHER CONDITIONS BREAKOUT
WIND DIRECTION BREAKOUT
WEATHER BY HOUR - JUNE 14, 2013
[ °C ]   °F
Local TimeTemperatureDewpointHumidityBarometerVisibilityWind DirectionWind SpeedGust SpeedPrecipitationEventsConditions
12:30 AM62.6 °F53.6 °F72 %30.12 in6.2 miWNW (290°)13.8 mphPartly Cloudy
1:00 AM62.6 °F51.8 °F68 %30.12 in6.2 miWNW (290°)16.1 mphPartly Cloudy
1:30 AM62.6 °F51.8 °F68 %30.12 in6.2 miWNW (290°)12.7 mphPartly Cloudy
2:00 AM64.0 °F56.0 °F68 %30.09 in12.0 miWest (280°)13.8 mphScattered Clouds
2:00 AM62.6 °F53.6 °F72 %30.12 in6.2 miWest (280°)12.7 mphPartly Cloudy
2:30 AM60.8 °F53.6 °F77 %30.09 in6.2 miWest (280°)12.7 mphPartly Cloudy
3:00 AM60.8 °F53.6 °F77 %30.09 in6.2 miWest (280°)12.7 mphPartly Cloudy
3:30 AM60.8 °F51.8 °F72 %30.09 in6.2 miWest (260°)6.9 mphPartly Cloudy
4:00 AM60.8 °F53.6 °F77 %30.09 in6.2 miWest (260°)8.1 mphPartly Cloudy
4:30 AM60.8 °F51.8 °F72 %30.09 in6.2 miWest (260°)8.1 mphPartly Cloudy
5:00 AM60.8 °F51.8 °F72 %30.09 in6.2 miWest (260°)6.9 mphPartly Cloudy
5:30 AM59.0 °F51.8 °F77 %30.09 in6.2 miWNW (290°)5.8 mphPartly Cloudy
6:00 AM57.2 °F51.8 °F82 %30.09 in6.2 miWNW (290°)3.5 mphPartly Cloudy
6:30 AM57.2 °F51.8 °F82 %30.09 in6.2 miWest (280°)2.3 mphPartly Cloudy
7:00 AM57.2 °F53.6 °F88 %30.09 in6.2 miVariable1.2 mphPartly Cloudy
7:30 AM59.0 °F53.6 °F82 %30.09 in6.2 miVariable1.2 mphPartly Cloudy
8:00 AM61.0 °F54.0 °F73 %30.09 in12.0 miWNW (290°)2.3 mphPartly Cloudy
8:00 AM60.8 °F53.6 °F77 %30.09 in6.2 miWNW (290°)3.5 mphPartly Cloudy
8:30 AM60.8 °F53.6 °F77 %30.09 in6.2 miVariable2.3 mphPartly Cloudy
9:00 AM64.4 °F55.4 °F73 %30.09 in6.2 miNorth (10°)1.2 mphPartly Cloudy
9:30 AM66.2 °F55.4 °F68 %30.09 in6.2 miCalmPartly Cloudy
10:00 AM66.2 °F53.6 °F64 %30.09 in6.2 miENE (70°)3.5 mphPartly Cloudy
10:30 AM68.0 °F53.6 °F60 %30.09 in6.2 miSE (130°)3.5 mphPartly Cloudy
11:30 AM71.6 °F55.4 °F57 %30.06 in6.2 miEast (100°)6.9 mphPartly Cloudy
12:00 PM73.4 °F55.4 °F53 %30.06 inEast (100°)10.4 mphClear
12:30 PM75.2 °F55.4 °F50 %30.06 inEast (90°)10.4 mphClear
1:00 PM77.0 °F55.4 °F47 %30.06 inEast (100°)11.5 mphClear
1:30 PM77.0 °F55.4 °F47 %30.04 inEast (100°)11.5 mphClear
2:00 PM77.0 °F60.0 °F47 %29.99 in12.0 miEast (90°)11.5 mphScattered Clouds
2:00 PM78.8 °F57.2 °F47 %30.04 in6.2 miESE (120°)12.7 mphPartly Cloudy
2:30 PM80.6 °F55.4 °F42 %30.01 in6.2 miEast (100°)9.2 mphPartly Cloudy
3:00 PM80.6 °F57.2 °F45 %30.01 in6.2 miESE (120°)10.4 mphPartly Cloudy
3:30 PM84.2 °F55.4 °F37 %29.98 in6.2 miEast (100°)10.4 mphPartly Cloudy
4:00 PM84.2 °F55.4 °F37 %29.98 in6.2 miEast (100°)9.2 mphPartly Cloudy
4:30 PM86.0 °F57.2 °F37 %29.98 in6.2 miESE (110°)9.2 mphPartly Cloudy
5:00 PM86.0 °F57.2 °F37 %29.95 in6.2 miESE (120°)10.4 mphPartly Cloudy
5:30 PM87.8 °F57.2 °F35 %29.95 in6.2 miESE (110°)9.2 mphPartly Cloudy
6:00 PM87.8 °F59.0 °F38 %29.95 in6.2 miEast (90°)9.2 mphPartly Cloudy
6:30 PM87.8 °F57.2 °F35 %29.92 in6.2 miEast (100°)10.4 mphPartly Cloudy
7:00 PM87.8 °F59.0 °F38 %29.92 in6.2 miEast (90°)9.2 mphPartly Cloudy
7:30 PM86.0 °F59.0 °F40 %29.92 in6.2 miEast (90°)9.2 mphPartly Cloudy
8:00 PM87.0 °F62.0 °F33 %29.88 in12.0 miEast (80°)8.1 mphScattered Clouds
8:00 PM86.0 °F59.0 °F40 %29.92 in6.2 miEast (80°)9.2 mphPartly Cloudy
8:30 PM86.0 °F57.2 °F37 %29.92 in6.2 miEast (100°)8.1 mphPartly Cloudy
9:00 PM84.2 °F59.0 °F42 %29.95 in6.2 miEast (100°)5.8 mphPartly Cloudy
9:30 PM84.2 °F57.2 °F40 %29.95 in6.2 miESE (110°)6.9 mphPartly Cloudy
10:00 PM82.4 °F59.0 °F45 %29.95 in6.2 miEast (100°)4.6 mphPartly Cloudy
10:30 PM80.6 °F59.0 °F48 %29.95 in6.2 miVariable2.3 mphPartly Cloudy
11:00 PM78.8 °F60.8 °F54 %29.98 in6.2 miENE (60°)2.3 mphPartly Cloudy
11:30 PM75.2 °F62.6 °F65 %29.98 in6.2 miWest (280°)3.5 mphPartly Cloudy
Hourly data recorded from LEZG, located miles away from Zaragoza, Spain







STORIES FROM OUR PARTNERS